Tracking 19575 objects as of 18-Feb-2019
HD Live streaming from Space Station
objects crossing your sky now

COSMOS 872

Track COSMOS 872 now!
10-day predictions
COSMOS 872 is classified as:


NORAD ID: 9589
Int'l Code: 1976-118B
Perigee: 1,405.3 km
Apogee: 1,470.9 km
Inclination: 74.0 °
Period: 114.5 minutes
Semi major axis: 7809 km
RCS: 0.7031 m2 (medium)
Launch date: December 7, 1976
Source: Commonwealth of Independent States (former USSR) (CIS)
Launch site: PLESETSK MISSILE AND SPACE COMPLEX (PKMTR)
aabbcc
Your satellite tracking list
Your tracking list is empty




NASA's NSSDC Master Catalog

Two Line Element Set (TLE):
1  9589U 76118B   19048.93078859 -.00000018 +00000-0 -11979-4 0  9997
2  9589 074.0336 334.9804 0041955 333.7070 092.0809 12.58062402937911
Source of the keplerian elements: AFSPC